リニア彗星

236P/LINEAR (2010)

English version
Home page
Updated on September 3, 2011

---------------------------------------------------------------------

・ プロフィール

符号 236P/2010 K1
検出日 2010年5月20日
検出光度 21.5等
検出者 J. V. Scotti (Spacewatch)

・ 写真集

・ 軌道要素

                    Epoch = 2010 Sept. 1.0 TT
     T = 2010 Sept. 8.8213 TT         Peri. = 119.3369
     e = 0.509100                     Node  = 245.6704  2000.0
     q = 1.831352 AU                  Incl. =  16.3321
       a =  3.730598 AU    n = 0.1367843    P =   7.21 years

・ 星図

・ 光度変化

        m1 = 15.0 + 5 logΔ + 10.0 log r

---------------------------------------------------------------------

軌道要素は、IAUC 9149に掲載されたものです。
星図はステラナビゲータ Ver.8 (アストロアーツ) で作成したものです。
光度グラフはComet for Windowsで作成したものです。

---------------------------------------------------------------------

Copyright(C) Seiichi Yoshida (comet@aerith.net). All rights reserved.